When you browse on this site, cookies collect data to enhance your experience and personalize the content and advertising you see.
Visit our Privacy Policy to learn more. By continuing to use the site, you agree to this use of cookies and data.
  • In Portugal
  • List of Countries
  • For 7 days
  • Water Temperature
  • Weather Map
  • Weather Widgets
  • user-avatar
    Login

    Hourly Weather Grijo

    Today, 24 February, Monday

    Time Temperature Precipitation Wind Pressure Humidity
    00:00 +14°C° 0 mm 1 mps 762 mmHg 59%
    01:00 +13°C° 0 mm 1 mps 762 mmHg 58%
    02:00 +13°C° 0 mm 1 mps 761 mmHg 57%
    03:00 +13°C° 0 mm 1 mps 761 mmHg 57%
    04:00 +12°C° 0 mm 1 mps 761 mmHg 57%
    05:00 +12°C° 0 mm 1 mps 761 mmHg 56%
    06:00 +13°C° 0 mm 1 mps 761 mmHg 55%
    07:00 +14°C° 0 mm 1 mps 761 mmHg 53%
    08:00 +15°C° 0 mm 1 mps 761 mmHg 52%
    09:00 +18°C° 0 mm 1 mps 761 mmHg 48%
    10:00 +20°C° 0 mm 1 mps 761 mmHg 44%
    11:00 +20°C° 0 mm 2 mps 761 mmHg 40%
    12:00 +20°C° 0 mm 2 mps 760 mmHg 39%
    13:00 +21°C° 0 mm 2 mps 759 mmHg 39%
    14:00 +21°C° 0 mm 2 mps 759 mmHg 38%
    15:00 +19°C° 0 mm 2 mps 759 mmHg 47%
    16:00 +17°C° 0 mm 3 mps 759 mmHg 57%
    17:00 +14°C° 0 mm 3 mps 758 mmHg 66%
    18:00 +13°C° 0 mm 3 mps 759 mmHg 71%
    19:00 +12°C° 0 mm 2 mps 759 mmHg 75%
    20:00 +10°C° 0 mm 2 mps 759 mmHg 80%
    21:00 +10°C° 0 mm 2 mps 759 mmHg 80%
    22:00 +11°C° 0 mm 1 mps 759 mmHg 80%
    23:00 +11°C° 0 mm 1 mps 759 mmHg 79%

    Tomorrow, 25 February, Tuesday

    Time Temperature Precipitation Wind Pressure Humidity
    00:00 +11°C° 0 mm 1 mps 759 mmHg 82%
    01:00 +11°C° 0 mm 1 mps 758 mmHg 85%
    02:00 +10°C° 0 mm 1 mps 758 mmHg 87%
    03:00 +11°C° 0 mm 1 mps 758 mmHg 87%
    04:00 +10°C° 0 mm 2 mps 758 mmHg 86%
    05:00 +10°C° 0 mm 2 mps 758 mmHg 85%
    06:00 +12°C° 0.2 mm 2 mps 758 mmHg 86%
    07:00 +12°C° 0.2 mm 2 mps 758 mmHg 86%
    08:00 +12°C° 0.2 mm 2 mps 758 mmHg 86%
    09:00 +11°C° 0.5 mm 3 mps 758 mmHg 88%
    10:00 +11°C° 0.5 mm 3 mps 758 mmHg 89%
    11:00 +11°C° 0.5 mm 3 mps 758 mmHg 90%
    12:00 +12°C° 0.1 mm 3 mps 758 mmHg 89%
    13:00 +12°C° 0.1 mm 3 mps 757 mmHg 88%
    14:00 +13°C° 0.1 mm 3 mps 757 mmHg 87%
    15:00 +12°C° 0 mm 4 mps 757 mmHg 85%
    16:00 +12°C° 0 mm 4 mps 757 mmHg 83%
    17:00 +10°C° 0 mm 5 mps 758 mmHg 81%
    18:00 +10°C° 0 mm 5 mps 758 mmHg 81%
    19:00 +9°C° 0 mm 5 mps 759 mmHg 82%
    20:00 +8°C° 0 mm 5 mps 759 mmHg 82%
    21:00 +8°C° 0 mm 4 mps 759 mmHg 82%
    22:00 +7°C° 0 mm 4 mps 759 mmHg 83%
    23:00 +7°C° 0 mm 4 mps 759 mmHg 83%

    Day after tomorrow, 26 February, Wednesday

    Time Temperature Precipitation Wind Pressure Humidity
    00:00 +8°C° 0 mm 3 mps 759 mmHg 81%
    01:00 +8°C° 0 mm 3 mps 759 mmHg 79%
    02:00 +8°C° 0 mm 3 mps 759 mmHg 77%
    03:00 +8°C° 0 mm 3 mps 759 mmHg 79%
    04:00 +8°C° 0 mm 3 mps 759 mmHg 80%
    05:00 +7°C° 0 mm 3 mps 759 mmHg 82%
    06:00 +8°C° 0 mm 3 mps 759 mmHg 79%
    07:00 +9°C° 0 mm 3 mps 759 mmHg 76%
    08:00 +9°C° 0 mm 3 mps 759 mmHg 73%
    09:00 +11°C° 0 mm 3 mps 760 mmHg 67%
    10:00 +12°C° 0 mm 4 mps 760 mmHg 60%
    11:00 +13°C° 0 mm 4 mps 760 mmHg 54%
    12:00 +13°C° 0 mm 4 mps 759 mmHg 54%
    13:00 +14°C° 0 mm 5 mps 759 mmHg 55%
    14:00 +14°C° 0 mm 5 mps 758 mmHg 55%
    15:00 +13°C° 0 mm 5 mps 758 mmHg 59%
    16:00 +12°C° 0 mm 5 mps 758 mmHg 63%
    17:00 +11°C° 0 mm 4 mps 758 mmHg 66%
    18:00 +8°C° 0 mm 4 mps 759 mmHg 70%
    19:00 +8°C° 0 mm 3 mps 759 mmHg 73%
    20:00 +7°C° 0 mm 3 mps 759 mmHg 77%
    21:00 +7°C° 0 mm 2 mps 759 mmHg 77%
    22:00 +7°C° 0 mm 2 mps 759 mmHg 77%
    23:00 +7°C° 0 mm 2 mps 759 mmHg 78%

    27 February, Thursday

    Time Temperature Precipitation Wind Pressure Humidity
    00:00 +7°C° 0 mm 2 mps 759 mmHg 77%
    01:00 +8°C° 0 mm 1 mps 759 mmHg 76%
    02:00 +8°C° 0 mm 1 mps 758 mmHg 75%
    03:00 +7°C° 0 mm 1 mps 758 mmHg 77%
    04:00 +7°C° 0 mm 1 mps 758 mmHg 78%
    05:00 +7°C° 0 mm 1 mps 758 mmHg 79%
    06:00 +8°C° 0 mm 1 mps 758 mmHg 77%
    07:00 +9°C° 0 mm 1 mps 759 mmHg 74%
    08:00 +10°C° 0 mm 2 mps 759 mmHg 71%
    09:00 +12°C° 0 mm 1 mps 759 mmHg 68%
    10:00 +14°C° 0 mm 1 mps 759 mmHg 64%
    11:00 +15°C° 0 mm 1 mps 759 mmHg 60%
    12:00 +16°C° 0 mm 1 mps 758 mmHg 58%
    13:00 +17°C° 0 mm 2 mps 758 mmHg 55%
    14:00 +17°C° 0 mm 2 mps 757 mmHg 52%
    15:00 +16°C° 0 mm 2 mps 757 mmHg 60%
    16:00 +15°C° 0 mm 2 mps 757 mmHg 68%
    17:00 +13°C° 0 mm 2 mps 757 mmHg 76%
    18:00 +12°C° 0 mm 2 mps 757 mmHg 80%
    19:00 +11°C° 0 mm 1 mps 757 mmHg 84%
    20:00 +11°C° 0 mm 1 mps 758 mmHg 88%
    21:00 +10°C° 0 mm 1 mps 757 mmHg 89%
    22:00 +10°C° 0 mm 1 mps 757 mmHg 89%
    23:00 +10°C° 0 mm 1 mps 757 mmHg 89%

    28 February, Friday

    Time Temperature Precipitation Wind Pressure Humidity
    00:00 +10°C° 0 mm 1 mps 757 mmHg 89%
    01:00 +9°C° 0 mm 1 mps 757 mmHg 88%
    02:00 +9°C° 0 mm 1 mps 756 mmHg 88%
    03:00 +9°C° 0 mm 1 mps 756 mmHg 88%
    04:00 +9°C° 0 mm 1 mps 756 mmHg 87%
    05:00 +9°C° 0 mm 1 mps 755 mmHg 86%
    06:00 +10°C° 0 mm 1 mps 755 mmHg 84%
    07:00 +10°C° 0 mm 0 mps 755 mmHg 81%
    08:00 +11°C° 0 mm 0 mps 756 mmHg 78%
    09:00 +13°C° 0 mm 1 mps 755 mmHg 72%
    10:00 +14°C° 0 mm 1 mps 755 mmHg 67%
    11:00 +16°C° 0 mm 1 mps 755 mmHg 61%
    12:00 +16°C° 0 mm 2 mps 755 mmHg 62%
    13:00 +16°C° 0 mm 2 mps 754 mmHg 62%
    14:00 +16°C° 0 mm 2 mps 754 mmHg 63%
    15:00 +15°C° 0 mm 2 mps 754 mmHg 67%
    16:00 +14°C° 0 mm 2 mps 754 mmHg 72%
    17:00 +13°C° 0 mm 2 mps 753 mmHg 76%
    18:00 +13°C° 0 mm 2 mps 754 mmHg 79%
    19:00 +12°C° 0 mm 2 mps 754 mmHg 81%
    20:00 +12°C° 0 mm 2 mps 754 mmHg 84%
    21:00 +12°C° 0 mm 2 mps 754 mmHg 85%
    22:00 +12°C° 0 mm 2 mps 754 mmHg 86%
    23:00 +12°C° 0 mm 2 mps 754 mmHg 88%

    29 February, Saturday

    Time Temperature Precipitation Wind Pressure Humidity
    00:00 +11°C° 0 mm 3 mps 754 mmHg 87%
    01:00 +11°C° 0 mm 3 mps 753 mmHg 87%
    02:00 +11°C° 0 mm 4 mps 753 mmHg 87%
    03:00 +11°C° 0.1 mm 4 mps 753 mmHg 88%
    04:00 +11°C° 0.1 mm 4 mps 753 mmHg 89%
    05:00 +10°C° 0.1 mm 5 mps 752 mmHg 91%
    06:00 +12°C° 0.3 mm 5 mps 753 mmHg 92%
    07:00 +11°C° 0.3 mm 6 mps 753 mmHg 93%
    08:00 +11°C° 0.3 mm 6 mps 753 mmHg 94%
    09:00 +13°C° 0.6 mm 6 mps 753 mmHg 91%
    10:00 +14°C° 0.6 mm 6 mps 753 mmHg 88%
    11:00 +15°C° 0.6 mm 6 mps 754 mmHg 85%
    12:00 +15°C° 0.3 mm 6 mps 753 mmHg 83%
    13:00 +15°C° 0.3 mm 5 mps 753 mmHg 82%
    14:00 +15°C° 0.3 mm 5 mps 753 mmHg 81%
    15:00 +14°C° 0.5 mm 5 mps 753 mmHg 84%
    16:00 +13°C° 0.5 mm 5 mps 753 mmHg 88%
    17:00 +13°C° 0.5 mm 5 mps 753 mmHg 92%
    18:00 +12°C° 0.3 mm 4 mps 754 mmHg 92%
    19:00 +12°C° 0.3 mm 4 mps 754 mmHg 91%
    20:00 +11°C° 0.3 mm 3 mps 755 mmHg 90%
    21:00 +11°C° 0.1 mm 3 mps 755 mmHg 90%
    22:00 +12°C° 0.1 mm 2 mps 755 mmHg 90%
    23:00 +12°C° 0.1 mm 2 mps 755 mmHg 89%
    Show more